ARIANE 5 R/B, 41309

Orbit data source: Space-Track

ARIANE 5 R/B, 41309 is space debris in HEO originally from a launch on Wed, 27 Jan 2016 UTC launched from the French Guiana (FRGUI). Debris objects in space refer to the collection of defunct objects orbiting the Earth. Examples of debris include non-operational satellites, rocket bodies, and fragments generated from explosions, collisions, or faulty payload assembly.

Loading next visibility...
Identifier
41309, 2016-004B
Orbit
HEO
Country
Flag of FRFR
Related business
Manufacturer
Airbus Safran
Mission
Spacecraft
Bus & Motor
ESC-A, Unknown motor
Mass
~5,000 kg wet, ~5,000 kg dry
Launch date (UTC)
2016-01-27 (10 years ago)
Launch vehicle
Unknown
Launch site
French Guiana (FRGUI)
Object type
Payload
Rocket body
Debris
Shape & HBR
Cyl + 1 Nozzle, 3.5 m
Radar Cross Section
41.627 m², Large (>1 m²)

Expand to show TLE details & history
Last TLE update: 15 hours ago

TLE from 15 hours ago
0 ARIANE 5 R/B
1 41309U 16004B   25350.92202095  .00000595  00000-0  46292-3 0  9997
2 41309   0.4302 154.3666 7168611  49.8461  90.4061  2.38963820 84217
Epoch: 2025-12-16T22:07Z
TLE epoch observation values (Epoch: 2025-12-16T22:07:42.610Z)
Latitude
-0.19642°
Longitude
-57.72763°
Altitude
26,764.511 km
Speed
2.681 km/s
True Right ascension
23h 59m 59s
True Declination
0° 11' 46"
Sunlit
Object was in daylight at epoch
Visualization orbit readout
Latitude
Unknown
Longitude
Unknown
Altitude
Unknown
Speed
Unknown
Apparent Right ascension
Unknown
Apparent Declination
Unknown
Sunlit
N/A
Visualization observer readout
Local Sidereal Time
12:09:44
Azimuth
Unknown
Elevation
Unknown
Doppler factor
Unknown
Orbital elements
Apogee altitude
34,205.429 km
Perigee altitude
314.767 km
Semi-major axis
23,638.235 km
Eccentricity
0.71686
Inclination
0.4302°
RAAN
154.3666°
Arg. of periapsis
49.8461°
True anomaly
155.79281°
Mean anomaly
90.4061°
Eccentric anomaly
124.32602°
Mean motion
0.5972 °/min
Orbital period
602.81 mins
BSTAR
0.00046292
Loading maneuver chart data...
Computing Atmospheric mass density...
Loading historical data...
Loading historical data...
Loading historical data...
Loading historical data...
Loading historical data...
Loading historical data...
Loading historical data...
Other satellites on launch #4 in the year 2016 (2016-01-27 UTC)

Documentation

Showing up to 5 results
|